Date String (YYYY-MM-DD hh:mm:ss) UTC,Instrument flags,Ambient pressure (hPa),Sample flow (lpm),Bypass flow (lpm),Sample temperature (°C),Ambient temperature (°C),ASC tube jacket temperature (°C),LED temperature (°C),Box temperature (°C),Sample RH (%),Span deviation,Mass concentration (μg/m³),Mass concentration (μg/m³),Mass concentration (μg/m³)
DateTimeUTC,F1_M11,P_M11,Q1_M11,Q2_M11,T1_M11,T2_M11,T3_M11,T4_M11,T5_M11,U1_M11,ZSPAN_M11,X0_M11,X2_M11,X1_M11
2022-11-17 10:00:00,,0829.4,5.00,0.00,22.2,20.7,00.0,31.1,24.0,09.9,-000.0,0014.54,0004.96,0003.97
2022-11-17 10:01:00,,0829.5,5.00,0.00,22.2,20.7,00.0,31.1,23.9,09.8,-000.0,0014.46,0005.10,0004.05
2022-11-17 10:02:00,,0829.6,5.00,0.00,22.1,20.7,00.0,31.1,23.9,09.9,0000.0,0014.25,0005.24,0004.12
2022-11-17 10:03:00,,0829.5,5.01,0.00,22.2,21.1,00.0,31.0,24.0,09.9,0000.0,0013.32,0005.33,0004.13
2022-11-17 10:04:00,,0829.5,4.99,0.00,22.2,22.0,00.0,31.0,24.2,09.9,0000.0,0013.78,0005.40,0004.16
2022-11-17 10:05:00,,0829.5,5.00,0.00,22.3,22.3,00.0,31.0,24.3,09.8,0000.0,0014.16,0005.48,0004.21
2022-11-17 10:06:00,,0829.4,5.00,0.00,22.4,22.0,00.0,31.1,24.3,09.8,0000.0,0013.30,0005.47,0004.20
2022-11-17 10:07:00,,0829.4,5.00,0.00,22.4,21.8,00.0,31.1,24.3,09.8,0000.0,0014.30,0005.43,0004.19
2022-11-17 10:08:00,,0829.3,5.00,0.00,22.4,21.5,00.0,31.2,24.2,09.8,0000.0,0014.48,0005.37,0004.17
2022-11-17 10:09:00,,0829.3,5.00,0.00,22.3,21.4,00.0,31.2,24.2,09.8,0000.0,0014.39,0005.27,0004.15
2022-11-17 10:10:00,,0829.3,5.00,0.00,22.3,21.3,00.0,31.2,24.2,09.8,0000.0,0014.70,0005.22,0004.16
2022-11-17 10:11:00,,0829.4,5.00,0.00,22.3,21.2,00.0,31.2,24.2,09.8,0000.0,0014.14,0005.15,0004.16
2022-11-17 10:12:00,,0829.5,5.01,0.00,22.3,21.1,00.0,31.2,24.1,09.9,0000.0,0013.64,0005.13,0004.16
2022-11-17 10:13:00,,0829.5,5.00,0.00,22.3,21.1,00.0,31.2,24.1,09.9,0000.0,0013.79,0005.12,0004.15
2022-11-17 10:14:00,,0829.4,5.00,0.00,22.3,21.0,00.0,31.2,24.1,09.9,0000.0,0014.39,0005.06,0004.15
2022-11-17 10:15:00,,0829.4,5.00,0.00,22.3,21.0,00.0,31.2,24.1,09.9,0000.0,0014.73,0005.04,0004.14
2022-11-17 10:16:00,,0829.3,5.00,0.00,22.3,20.9,00.0,31.2,24.0,09.9,0000.0,0014.44,0005.02,0004.14
2022-11-17 10:17:00,,0829.2,5.00,0.00,22.3,20.9,00.0,31.2,24.0,09.9,0000.0,0014.42,0005.01,0004.14
2022-11-17 10:18:00,,0829.2,5.00,0.00,22.3,20.9,00.0,31.1,24.0,10.0,0000.0,0013.40,0005.01,0004.15
2022-11-17 10:19:00,,0829.2,4.99,0.00,22.3,20.9,00.0,31.1,24.0,09.9,0000.0,0013.09,0004.98,0004.14
2022-11-17 10:20:00,,0829.2,5.00,0.00,22.2,20.9,00.0,31.1,24.0,09.9,0000.0,0013.70,0004.97,0004.13
2022-11-17 10:21:00,,0829.2,4.99,0.00,22.2,20.8,00.0,31.1,24.0,10.0,0000.0,0014.12,0004.93,0004.12
2022-11-17 10:22:00,,0829.2,5.00,0.00,22.2,20.7,00.0,31.1,24.0,10.0,0000.0,0014.69,0004.89,0004.12
2022-11-17 10:23:00,,0829.3,5.00,0.00,22.2,20.7,00.0,31.1,24.0,09.8,0000.0,0015.72,0004.82,0004.09
2022-11-17 10:24:00,,0829.2,5.00,0.00,22.2,20.7,00.0,31.1,24.0,09.8,0000.0,0015.60,0004.72,0004.06
2022-11-17 10:25:00,,0829.2,5.01,0.00,22.2,20.8,00.0,31.1,24.0,09.5,0000.0,0014.81,0004.61,0004.01
2022-11-17 10:26:00,,0829.2,5.00,0.00,22.2,21.5,00.0,31.0,24.1,09.4,0000.0,0014.01,0004.54,0003.95
2022-11-17 10:27:00,,0829.2,4.99,0.00,22.3,22.1,00.0,31.0,24.3,09.6,0000.0,0014.19,0004.48,0003.92
2022-11-17 10:28:00,,0829.2,5.00,0.00,22.4,22.0,00.0,31.1,24.3,09.5,0000.0,0014.71,0004.50,0003.90
2022-11-17 10:29:00,,0829.3,5.02,0.00,22.4,21.7,00.0,31.1,24.3,09.1,0000.0,0014.48,0004.41,0003.83
2022-11-17 10:30:00,,0829.3,5.01,0.00,22.3,21.5,00.0,31.2,24.2,09.2,0000.0,0013.72,0004.32,0003.75
2022-11-17 10:31:00,,0829.3,5.00,0.00,22.3,21.4,00.0,31.2,24.2,09.5,0000.0,0013.45,0004.30,0003.75
2022-11-17 10:32:00,,0829.3,4.98,0.00,22.3,21.2,00.0,31.2,24.2,09.5,0000.0,0012.21,0004.31,0003.72
2022-11-17 10:33:00,,0829.2,5.00,0.00,22.3,21.2,00.0,31.2,24.1,09.5,0000.0,0011.46,0004.31,0003.69
2022-11-17 10:34:00,,0829.3,5.01,0.00,22.3,21.1,00.0,31.2,24.1,09.1,0000.0,0010.62,0004.25,0003.65
2022-11-17 10:35:00,,0829.2,5.00,0.00,22.3,21.1,00.0,31.2,24.1,09.4,0000.0,0010.19,0004.21,0003.63
2022-11-17 10:36:00,,0829.3,4.98,0.00,22.3,21.0,00.0,31.2,24.1,09.3,0000.0,0009.40,0004.19,0003.61
2022-11-17 10:37:00,,0829.3,5.00,0.00,22.3,21.0,00.0,31.2,24.1,09.4,0000.0,0009.32,0004.19,0003.63
2022-11-17 10:38:00,,0829.2,5.00,0.00,22.3,20.9,00.0,31.2,24.1,09.4,0000.0,0009.12,0004.15,0003.61
2022-11-17 10:39:00,,0829.2,5.01,0.00,22.3,20.9,00.0,31.2,24.0,09.5,0000.0,0008.62,0004.16,0003.60
2022-11-17 10:40:00,,0829.3,5.00,0.00,22.3,20.9,00.0,31.2,24.0,09.6,0000.0,0008.74,0004.22,0003.64
2022-11-17 10:41:00,,0829.3,4.98,0.00,22.2,20.8,00.0,31.2,24.0,09.6,0000.0,0009.69,0004.33,0003.71
2022-11-17 10:42:00,,0829.3,5.02,0.00,22.2,20.8,00.0,31.1,24.0,09.7,0000.0,0010.07,0004.36,0003.72
2022-11-17 10:43:00,,0829.2,5.00,0.00,22.2,20.8,00.0,31.1,23.9,09.7,0000.0,0010.02,0004.39,0003.73
2022-11-17 10:44:00,,0829.2,4.99,0.00,22.2,20.7,00.0,31.1,23.9,09.7,0000.0,0010.18,0004.42,0003.74
2022-11-17 10:45:00,,0829.2,5.00,0.00,22.2,20.7,00.0,31.1,23.9,09.7,0000.0,0010.03,0004.50,0003.79
2022-11-17 10:46:00,,0829.3,5.02,0.00,22.2,21.4,00.0,31.1,24.1,09.7,0000.0,0010.19,0004.56,0003.81
2022-11-17 10:47:00,,0829.3,4.99,0.00,22.3,22.2,00.0,31.1,24.3,09.6,0000.0,0010.47,0004.62,0003.83
2022-11-17 10:48:00,,0829.3,4.99,0.00,22.4,22.2,00.0,31.1,24.4,09.5,0000.0,0011.21,0004.66,0003.85
2022-11-17 10:49:00,,0829.3,5.01,0.00,22.4,21.9,00.0,31.2,24.3,09.4,0000.0,0011.36,0004.70,0003.85
2022-11-17 10:50:00,,0829.4,5.01,0.00,22.4,21.6,00.0,31.2,24.2,09.3,0000.0,0011.24,0004.68,0003.85
2022-11-17 10:51:00,,0829.3,5.00,0.00,22.3,21.4,00.0,31.2,24.2,09.3,0000.0,0011.70,0004.75,0003.85
2022-11-17 10:52:00,,0829.2,5.00,0.00,22.3,21.2,00.0,31.2,24.2,09.3,0000.0,0011.53,0004.74,0003.84
2022-11-17 10:53:00,,0829.2,5.00,0.00,22.3,21.1,00.0,31.2,24.2,09.3,0000.0,0011.67,0004.74,0003.83
2022-11-17 10:54:00,,0829.4,5.00,0.00,22.3,21.1,00.0,31.2,24.1,09.2,0000.0,0011.61,0004.71,0003.82
2022-11-17 10:55:00,,0829.3,5.00,0.00,22.3,21.0,00.0,31.2,24.1,09.3,0000.0,0012.39,0004.72,0003.81
2022-11-17 10:56:00,,0829.3,5.00,0.00,22.3,20.9,00.0,31.2,24.1,09.5,0000.0,0013.00,0004.77,0003.81
2022-11-17 10:57:00,,0829.3,5.00,0.00,22.2,20.8,00.0,31.2,24.0,09.4,0000.0,0013.33,0004.81,0003.81
2022-11-17 10:58:00,,0829.2,5.00,0.00,22.2,20.7,00.0,31.2,24.0,09.2,0000.0,0013.80,0004.81,0003.79
2022-11-17 10:59:00,,0829.3,5.00,0.00,22.2,20.6,00.0,31.2,24.0,09.1,0000.0,0013.53,0004.75,0003.75
